Location: Newark
(53.5596°N, 1.2370°W)
Time: 16:13:47
(UTC+00:00)

N. Korean satellite - Visible Passes

Search period start: 17 September 2019 00:00
Search period end: 27 September 2019 00:00
Orbit: 455 x 508 km, 97.2° (Epoch: 16 September)

Date Brightness Start Highest point End Pass type
(mag) Time Alt. Az. Time Alt. Az. Time Alt. Az.
20 Sep 10.1 04:59:31 10° ENE 05:01:02 12° E 05:02:33 10° ESE visible
23 Sep 9.7 05:16:25 10° NE 05:18:55 19° E 05:21:25 10° SE visible
24 Sep 10.5 04:52:45 10° ENE 04:53:26 10° E 04:54:07 10° E visible
